Radiation Dose at Monitoring Post of Fukushima Daini Nuclear Power Station
Date,Time,MP-1(microSv/h),MP-2(microSv/h),MP-3(microSv/h),MP-4(microSv/h),MP-5(microSv/h),MP-6(microSv/h),MP-7(microSv/h),Wind Direction,Wind Velocity(m/s),Rain
2016/09/21,00:00,0.368,0.228,0.388,0.355,0.356,0.181,0.157,north-northeast,11.6,Yes
2016/09/21,00:10,0.371,0.229,0.384,0.357,0.353,0.182,0.156,north,12.8,Yes
2016/09/21,00:20,0.369,0.228,0.387,0.358,0.355,0.182,0.156,north,13.5,Yes
2016/09/21,00:30,0.371,0.228,0.384,0.357,0.354,0.181,0.156,north-northeast,14.0,Yes
2016/09/21,00:40,0.369,0.227,0.387,0.358,0.355,0.182,0.155,north,12.6,Yes
2016/09/21,00:50,0.372,0.227,0.384,0.355,0.352,0.181,0.155,north-northeast,12.8,Yes
2016/09/21,01:00,0.370,0.226,0.387,0.358,0.355,0.181,0.155,north,12.9,Yes
2016/09/21,01:10,0.371,0.226,0.386,0.356,0.355,0.179,0.154,north-northeast,11.4,Yes
2016/09/21,01:20,0.370,0.226,0.389,0.356,0.355,0.179,0.155,north-northeast,9.8,Yes
2016/09/21,01:30,0.371,0.225,0.384,0.356,0.354,0.180,0.153,north,11.1,Yes
2016/09/21,01:40,0.370,0.226,0.388,0.356,0.354,0.180,0.154,north,9.3,Yes
2016/09/21,01:50,0.372,0.225,0.384,0.357,0.353,0.179,0.154,north-northeast,9.3,Yes
2016/09/21,02:00,0.370,0.224,0.388,0.357,0.352,0.179,0.154,north,9.2,Yes
2016/09/21,02:10,0.373,0.225,0.385,0.356,0.352,0.180,0.154,north,10.2,Yes
2016/09/21,02:20,0.371,0.226,0.389,0.357,0.353,0.181,0.153,north-northeast,10.1,Yes
2016/09/21,02:30,0.372,0.225,0.386,0.356,0.353,0.181,0.154,north-northeast,10.4,Yes
2016/09/21,02:40,0.369,0.227,0.390,0.357,0.353,0.181,0.155,north,11.2,Yes
2016/09/21,02:50,0.371,0.225,0.387,0.356,0.355,0.181,0.154,north,13.0,Yes
2016/09/21,03:00,0.371,0.227,0.389,0.357,0.352,0.181,0.154,north,11.5,Yes
2016/09/21,03:10,0.372,0.226,0.387,0.357,0.356,0.181,0.154,north,11.4,Yes
2016/09/21,03:20,0.371,0.227,0.388,0.358,0.354,0.182,0.154,north-northwest,12.8,Yes
2016/09/21,03:30,0.371,0.226,0.390,0.358,0.355,0.181,0.154,north-northwest,10.9,Yes
2016/09/21,03:40,0.373,0.227,0.391,0.357,0.353,0.180,0.154,north-northwest,11.0,Yes
2016/09/21,03:50,0.372,0.226,0.388,0.357,0.355,0.180,0.153,north-northwest,11.3,No
2016/09/21,04:00,0.375,0.226,0.388,0.356,0.355,0.181,0.153,north-northwest,11.3,No
2016/09/21,04:10,0.372,0.225,0.389,0.358,0.355,0.179,0.153,north-northwest,12.2,No
2016/09/21,04:20,0.373,0.225,0.390,0.356,0.356,0.181,0.154,north-northwest,10.9,No
2016/09/21,04:30,0.373,0.226,0.391,0.359,0.352,0.180,0.153,north-northwest,11.2,No
2016/09/21,04:40,0.371,0.225,0.387,0.357,0.356,0.180,0.153,north-northwest,10.7,No
2016/09/21,04:50,0.374,0.225,0.388,0.357,0.352,0.181,0.153,north,10.6,No
2016/09/21,05:00,0.373,0.225,0.388,0.356,0.356,0.180,0.153,north,9.6,No
2016/09/21,05:10,0.374,0.226,0.392,0.358,0.352,0.180,0.154,north-northwest,9.1,No
2016/09/21,05:20,0.372,0.224,0.389,0.357,0.354,0.180,0.153,north-northwest,9.8,No
2016/09/21,05:30,0.374,0.224,0.391,0.358,0.352,0.180,0.152,north-northwest,9.5,No
2016/09/21,05:40,0.372,0.225,0.390,0.358,0.354,0.181,0.152,north-northwest,10.9,No
2016/09/21,05:50,0.374,0.225,0.389,0.357,0.352,0.180,0.153,north-northwest,10.4,No
2016/09/21,06:00,0.372,0.226,0.389,0.358,0.353,0.182,0.154,north-northwest,11.2,No
2016/09/21,06:10,0.373,0.225,0.389,0.357,0.352,0.180,0.153,north-northwest,10.5,No
2016/09/21,06:20,0.373,0.226,0.389,0.359,0.355,0.179,0.153,north-northwest,9.8,No
2016/09/21,06:30,0.372,0.224,0.390,0.357,0.352,0.180,0.152,north-northwest,8.3,No
2016/09/21,06:40,0.372,0.227,0.390,0.361,0.354,0.180,0.153,north-northwest,7.8,No
2016/09/21,06:50,0.373,0.225,0.391,0.356,0.353,0.180,0.152,north,8.5,No
2016/09/21,07:00,0.373,0.225,0.391,0.360,0.353,0.180,0.154,north-northwest,9.7,No
2016/09/21,07:10,0.373,0.224,0.391,0.357,0.353,0.181,0.153,north-northwest,8.8,No
2016/09/21,07:20,0.373,0.226,0.389,0.359,0.354,0.181,0.153,north-northwest,9.0,No
2016/09/21,07:30,0.374,0.227,0.391,0.358,0.352,0.182,0.153,north-northwest,8.2,No
2016/09/21,07:40,0.375,0.225,0.390,0.358,0.355,0.181,0.153,north,7.8,No
2016/09/21,07:50,0.373,0.226,0.392,0.359,0.351,0.181,0.153,north,7.8,No
2016/09/21,08:00,0.374,0.225,0.390,0.358,0.355,0.181,0.154,north-northwest,8.3,No
2016/09/21,08:10,0.376,0.226,0.392,0.360,0.353,0.182,0.154,north-northwest,8.2,No
2016/09/21,08:20,0.375,0.224,0.393,0.357,0.357,0.183,0.152,north,7.9,No
2016/09/21,08:30,0.376,0.224,0.393,0.360,0.354,0.181,0.153,north,6.4,No
2016/09/21,08:40,0.372,0.226,0.391,0.360,0.356,0.182,0.154,north,7.5,No
2016/09/21,08:50,0.376,0.224,0.394,0.357,0.355,0.182,0.155,north,7.5,No
2016/09/21,09:00,0.374,0.224,0.390,0.356,0.352,0.182,0.154,north,6.1,No
2016/09/21,09:10,0.372,0.226,0.392,0.360,0.356,0.182,0.152,north,7.2,No
2016/09/21,09:20,0.375,0.226,0.392,0.360,0.354,0.182,0.153,north,5.8,No
2016/09/21,09:30,0.373,0.224,0.391,0.357,0.353,0.181,0.153,north,6.4,No
2016/09/21,09:40,0.373,0.227,0.394,0.360,0.356,0.182,0.155,north,6.7,No
2016/09/21,09:50,0.376,0.226,0.391,0.363,0.354,0.183,0.156,north-northeast,6.7,No
2016/09/21,10:00,0.377,0.225,0.395,0.359,0.353,0.184,0.155,north-northeast,7.5,No
2016/09/21,10:10,0.374,0.224,0.392,0.357,0.350,0.182,0.154,north,4.4,No
2016/09/21,10:20,0.371,0.223,0.389,0.358,0.354,0.183,0.155,north,7.3,No
2016/09/21,10:30,0.374,0.225,0.396,0.357,0.358,0.183,0.153,north-northeast,6.7,No
2016/09/21,10:40,0.379,0.227,0.392,0.359,0.354,0.183,0.155,north-northeast,6.1,No
2016/09/21,10:50,0.376,0.226,0.390,0.358,0.354,0.183,0.156,north-northeast,6.7,No
2016/09/21,11:00,0.374,0.225,0.395,0.364,0.352,0.184,0.156,north-northeast,6.6,No
2016/09/21,11:10,0.375,0.226,0.393,0.363,0.358,0.185,0.155,north-northeast,6.0,No
2016/09/21,11:20,0.380,0.228,0.391,0.362,0.356,0.183,0.155,north,4.5,No
2016/09/21,11:30,0.374,0.227,0.394,0.363,0.355,0.184,0.154,north,5.2,No
2016/09/21,11:40,0.376,0.227,0.392,0.365,0.358,0.184,0.157,north,5.5,No
2016/09/21,11:50,0.379,0.227,0.393,0.362,0.357,0.183,0.157,north,6.5,No
2016/09/21,12:00,0.377,0.226,0.395,0.364,0.355,0.183,0.155,north,5.8,No
2016/09/21,12:10,0.378,0.228,0.392,0.365,0.358,0.185,0.156,north,6.0,No
2016/09/21,12:20,0.381,0.228,0.395,0.361,0.357,0.184,0.157,north,5.8,No
2016/09/21,12:30,0.376,0.225,0.395,0.361,0.353,0.184,0.156,north,6.0,No
2016/09/21,12:40,0.381,0.228,0.392,0.362,0.357,0.185,0.155,north,4.7,No
2016/09/21,12:50,0.377,0.228,0.397,0.361,0.357,0.184,0.156,north,4.5,No
2016/09/21,13:00,0.376,0.228,0.394,0.365,0.354,0.184,0.156,north,5.9,No
2016/09/21,13:10,0.379,0.229,0.392,0.364,0.358,0.186,0.156,north,6.1,No
2016/09/21,13:20,0.378,0.227,0.397,0.362,0.357,0.185,0.158,north,4.5,No
2016/09/21,13:30,0.377,0.227,0.394,0.358,0.353,0.184,0.156,north,5.1,No
2016/09/21,13:40,0.379,0.226,0.392,0.363,0.353,0.183,0.155,north,6.2,No
2016/09/21,13:50,0.377,0.226,0.392,0.366,0.357,0.184,0.156,north,6.3,No
2016/09/21,14:00,0.377,0.227,0.395,0.361,0.355,0.185,0.157,north-northeast,6.6,No
2016/09/21,14:10,0.379,0.227,0.395,0.360,0.354,0.186,0.157,north,7.6,No
2016/09/21,14:20,0.377,0.227,0.391,0.366,0.352,0.184,0.156,north,5.8,No
2016/09/21,14:30,0.379,0.228,0.396,0.364,0.358,0.185,0.154,north,6.2,No
2016/09/21,14:40,0.378,0.228,0.397,0.361,0.358,0.185,0.156,north-northeast,4.8,No
2016/09/21,14:50,0.375,0.227,0.394,0.366,0.356,0.185,0.156,north,4.3,No
2016/09/21,15:00,0.378,0.225,0.396,0.366,0.354,0.184,0.156,north,4.8,No
2016/09/21,15:10,0.379,0.228,0.398,0.363,0.358,0.186,0.158,north,3.7,No
2016/09/21,15:20,0.376,0.227,0.393,0.368,0.359,0.186,0.157,north,4.8,No
2016/09/21,15:30,0.379,0.227,0.396,0.364,0.355,0.185,0.155,north,3.2,No
2016/09/21,15:40,0.378,0.229,0.399,0.365,0.356,0.185,0.157,north,5.4,No
2016/09/21,15:50,0.377,0.227,0.394,0.365,0.358,0.185,0.157,north,4.3,No
2016/09/21,16:00,0.380,0.227,0.398,0.362,0.356,0.185,0.156,north-northwest,3.1,No
2016/09/21,16:10,0.376,0.229,0.396,0.366,0.356,0.185,0.158,north,4.4,No
2016/09/21,16:20,0.378,0.228,0.395,0.364,0.361,0.186,0.157,north,3.9,No
2016/09/21,16:30,0.379,0.228,0.397,0.363,0.355,0.186,0.156,north,2.4,No
2016/09/21,16:40,0.378,0.229,0.394,0.366,0.358,0.185,0.159,north,3.6,No
2016/09/21,16:50,0.381,0.228,0.397,0.362,0.357,0.185,0.157,north,3.3,No
2016/09/21,17:00,0.377,0.229,0.396,0.367,0.358,0.186,0.157,north-northwest,4.1,No
2016/09/21,17:10,0.380,0.227,0.398,0.365,0.359,0.185,0.157,north-northwest,5.5,No
2016/09/21,17:20,0.378,0.229,0.395,0.365,0.356,0.186,0.157,north-northwest,5.3,No
2016/09/21,17:30,0.378,0.228,0.397,0.365,0.360,0.186,0.158,north,5.9,No
2016/09/21,17:40,0.379,0.229,0.398,0.365,0.357,0.186,0.157,north-northwest,6.2,No
2016/09/21,17:50,0.378,0.229,0.395,0.367,0.360,0.184,0.158,north-northwest,6.2,No
2016/09/21,18:00,0.381,0.229,0.399,0.364,0.357,0.185,0.157,north-northwest,6.2,No
2016/09/21,18:10,0.378,0.228,0.395,0.367,0.359,0.187,0.157,north-northwest,6.6,No
2016/09/21,18:20,0.380,0.228,0.397,0.365,0.359,0.185,0.158,north-northwest,7.2,No
2016/09/21,18:30,0.376,0.228,0.398,0.367,0.359,0.186,0.157,north-northwest,6.6,No
2016/09/21,18:40,0.379,0.228,0.395,0.363,0.359,0.185,0.158,north-northwest,7.3,No
2016/09/21,18:50,0.381,0.229,0.401,0.368,0.357,0.186,0.157,north-northwest,7.1,No
2016/09/21,19:00,0.379,0.228,0.396,0.366,0.360,0.186,0.157,north-northwest,7.0,No
2016/09/21,19:10,0.380,0.229,0.399,0.366,0.356,0.187,0.157,north-northwest,7.8,No
2016/09/21,19:20,0.377,0.229,0.397,0.366,0.360,0.186,0.157,north-northwest,7.4,No
2016/09/21,19:30,0.382,0.229,0.399,0.364,0.356,0.185,0.157,north,8.5,No
2016/09/21,19:40,0.377,0.229,0.397,0.366,0.359,0.186,0.159,north-northwest,7.3,No
2016/09/21,19:50,0.381,0.227,0.399,0.365,0.356,0.186,0.157,north-northwest,7.5,No
2016/09/21,20:00,0.377,0.229,0.397,0.368,0.357,0.187,0.157,north-northwest,6.7,Yes
2016/09/21,20:10,0.379,0.228,0.396,0.364,0.357,0.185,0.157,north-northwest,7.3,No
2016/09/21,20:20,0.379,0.229,0.399,0.367,0.359,0.186,0.157,north-northwest,6.7,No
2016/09/21,20:30,0.379,0.229,0.395,0.364,0.358,0.185,0.158,north-northwest,6.6,No
2016/09/21,20:40,0.381,0.228,0.400,0.366,0.357,0.186,0.157,north-northwest,5.6,Yes
2016/09/21,20:50,0.378,0.230,0.397,0.365,0.358,0.186,0.158,north-northwest,7.0,No
2016/09/21,21:00,0.381,0.228,0.399,0.365,0.356,0.185,0.156,north-northwest,7.2,No
2016/09/21,21:10,0.379,0.229,0.397,0.366,0.358,0.187,0.159,north-northwest,6.5,No
2016/09/21,21:20,0.381,0.228,0.398,0.366,0.357,0.186,0.158,north-northwest,6.7,No
2016/09/21,21:30,0.379,0.230,0.399,0.365,0.359,0.186,0.158,north-northwest,6.4,No
2016/09/21,21:40,0.380,0.229,0.397,0.364,0.355,0.185,0.157,north,5.9,No
2016/09/21,21:50,0.379,0.229,0.398,0.367,0.360,0.185,0.158,north,6.2,No
2016/09/21,22:00,0.379,0.229,0.395,0.365,0.357,0.186,0.157,north,6.1,No
2016/09/21,22:10,0.380,0.228,0.400,0.365,0.359,0.186,0.157,north-northwest,5.5,Yes
2016/09/21,22:20,0.376,0.229,0.397,0.365,0.358,0.186,0.158,north,5.6,Yes
2016/09/21,22:30,0.382,0.230,0.400,0.368,0.358,0.187,0.158,north,5.9,Yes
2016/09/21,22:40,0.379,0.231,0.398,0.367,0.359,0.187,0.159,north,4.2,Yes
2016/09/21,22:50,0.383,0.230,0.399,0.366,0.359,0.188,0.159,north-northwest,3.3,Yes
2016/09/21,23:00,0.379,0.232,0.400,0.368,0.360,0.189,0.160,north,3.5,Yes
2016/09/21,23:10,0.382,0.230,0.398,0.366,0.356,0.188,0.159,north-northwest,3.7,Yes
2016/09/21,23:20,0.379,0.232,0.400,0.367,0.360,0.188,0.159,north-northwest,4.0,Yes
2016/09/21,23:30,0.382,0.229,0.397,0.364,0.356,0.188,0.159,north,3.7,Yes
2016/09/21,23:40,0.381,0.230,0.400,0.367,0.359,0.187,0.158,north-northwest,3.3,Yes
2016/09/21,23:50,0.379,0.229,0.397,0.364,0.356,0.189,0.159,north-northwest,4.2,Yes
